Time,TemperatureF,DewpointF,PressureIn,WindDirection,WindDirectionDegrees,WindSpeedMPH,WindSpeedGustMPH,Humidity,HourlyPrecipIn,Conditions,Clouds,dailyrainin,SoftwareType,DateUTC
2013-03-13 00:02:00,56.0,49.0,30.14,East,80,0.0,1.0,76,0.00,,,0.00,,2013-03-13 07:02:00,
2013-03-13 00:12:00,56.0,49.0,30.14,East,80,0.0,1.0,76,0.00,,,0.00,,2013-03-13 07:12:00,
2013-03-13 00:22:00,55.0,48.0,30.13,East,80,0.0,0.0,77,0.00,,,0.00,,2013-03-13 07:22:00,
2013-03-13 00:32:00,55.0,48.0,30.13,East,80,0.0,0.0,76,0.00,,,0.00,,2013-03-13 07:32:00,
2013-03-13 00:42:00,55.0,48.0,30.13,East,80,0.0,0.0,76,0.00,,,0.00,,2013-03-13 07:42:00,
2013-03-13 00:52:00,55.0,48.0,30.13,East,80,0.0,0.0,77,0.00,,,0.00,,2013-03-13 07:52:00,
2013-03-13 01:02:00,55.0,48.0,30.13,East,80,0.0,1.0,78,0.00,,,0.00,,2013-03-13 08:02:00,
2013-03-13 01:12:00,55.0,48.0,30.13,East,80,0.0,1.0,78,0.00,,,0.00,,2013-03-13 08:12:00,
2013-03-13 01:22:00,55.0,48.0,30.13,East,80,0.0,1.0,78,0.00,,,0.00,,2013-03-13 08:22:00,
2013-03-13 01:32:00,55.0,49.0,30.13,East,80,0.0,1.0,79,0.00,,,0.00,,2013-03-13 08:32:00,
2013-03-13 01:42:00,55.0,49.0,30.13,East,80,0.0,1.0,79,0.00,,,0.00,,2013-03-13 08:42:00,
2013-03-13 01:53:00,54.0,48.0,30.13,East,80,0.0,0.0,80,0.00,,,0.00,,2013-03-13 08:53:00,
2013-03-13 02:01:00,54.0,48.0,30.13,East,80,1.0,1.0,80,0.00,,,0.00,,2013-03-13 09:01:00,
2013-03-13 02:12:00,54.0,48.0,30.13,East,80,1.0,1.0,80,0.00,,,0.00,,2013-03-13 09:12:00,
2013-03-13 02:22:00,54.0,48.0,30.14,East,80,1.0,1.0,80,0.00,,,0.00,,2013-03-13 09:22:00,
2013-03-13 02:31:00,54.0,48.0,30.14,East,80,1.0,1.0,81,0.00,,,0.00,,2013-03-13 09:31:00,
2013-03-13 02:42:00,54.0,48.0,30.14,East,80,1.0,1.0,81,0.00,,,0.00,,2013-03-13 09:42:00,
2013-03-13 02:52:00,54.0,48.0,30.14,East,80,0.0,0.0,81,0.00,,,0.00,,2013-03-13 09:52:00,
2013-03-13 03:01:00,54.0,48.0,30.14,East,80,1.0,1.0,80,0.00,,,0.00,,2013-03-13 10:01:00,
2013-03-13 03:11:00,54.0,48.0,30.14,East,80,1.0,1.0,80,0.00,,,0.00,,2013-03-13 10:11:00,
2013-03-13 03:22:00,54.0,48.0,30.14,East,80,0.0,0.0,79,0.00,,,0.00,,2013-03-13 10:22:00,
2013-03-13 03:32:00,54.0,48.0,30.14,East,80,0.0,0.0,80,0.00,,,0.00,,2013-03-13 10:32:00,
2013-03-13 03:42:00,54.0,48.0,30.14,East,80,0.0,0.0,80,0.00,,,0.00,,2013-03-13 10:42:00,
2013-03-13 03:52:00,54.0,48.0,30.14,East,80,0.0,1.0,81,0.00,,,0.00,,2013-03-13 10:52:00,
2013-03-13 04:01:00,54.0,48.0,30.14,East,80,0.0,0.0,81,0.00,,,0.00,,2013-03-13 11:01:00,
2013-03-13 04:12:00,54.0,48.0,30.14,East,80,0.0,0.0,81,0.00,,,0.00,,2013-03-13 11:12:00,
2013-03-13 04:22:00,53.0,48.0,30.14,East,80,0.0,0.0,82,0.00,,,0.00,,2013-03-13 11:22:00,
2013-03-13 04:32:00,53.0,48.0,30.14,East,80,0.0,0.0,83,0.00,,,0.00,,2013-03-13 11:32:00,
2013-03-13 04:42:00,53.0,48.0,30.14,East,80,0.0,0.0,83,0.00,,,0.00,,2013-03-13 11:42:00,
2013-03-13 04:52:00,53.0,48.0,30.14,East,80,0.0,1.0,83,0.00,,,0.00,,2013-03-13 11:52:00,
2013-03-13 05:02:00,54.0,49.0,30.13,East,80,0.0,1.0,82,0.00,,,0.00,,2013-03-13 12:02:00,
2013-03-13 05:11:00,54.0,49.0,30.13,East,80,0.0,1.0,82,0.00,,,0.00,,2013-03-13 12:11:00,
2013-03-13 05:22:00,53.0,48.0,30.13,East,80,0.0,2.0,82,0.00,,,0.00,,2013-03-13 12:22:00,
2013-03-13 05:32:00,53.0,48.0,30.13,East,80,0.0,1.0,82,0.00,,,0.00,,2013-03-13 12:32:00,
2013-03-13 05:42:00,53.0,48.0,30.13,East,80,0.0,1.0,82,0.00,,,0.00,,2013-03-13 12:42:00,
2013-03-13 05:53:00,55.0,49.0,30.13,ENE,67,1.0,2.0,79,0.00,,,0.00,,2013-03-13 12:53:00,
2013-03-13 06:02:00,56.0,49.0,30.13,NE,50,1.0,3.0,76,0.00,,,0.00,,2013-03-13 13:02:00,
2013-03-13 06:11:00,56.0,49.0,30.13,NE,50,1.0,3.0,76,0.00,,,0.00,,2013-03-13 13:11:00,
2013-03-13 06:22:00,56.0,49.0,30.13,NE,55,1.0,2.0,76,0.00,,,0.00,,2013-03-13 13:22:00,
2013-03-13 06:32:00,55.0,48.0,30.14,NE,55,0.0,1.0,78,0.00,,,0.00,,2013-03-13 13:32:00,
2013-03-13 06:52:00,55.0,48.0,30.14,NNE,28,1.0,3.0,78,0.00,,,0.00,,2013-03-13 13:52:00,
2013-03-13 07:02:00,55.0,48.0,30.14,NNE,28,1.0,2.0,78,0.00,,,0.00,,2013-03-13 14:02:00,
2013-03-13 07:11:00,55.0,48.0,30.14,NNE,28,1.0,2.0,78,0.00,,,0.00,,2013-03-13 14:11:00,
2013-03-13 07:21:00,56.0,49.0,30.14,NE,38,1.0,2.0,76,0.00,,,0.00,,2013-03-13 14:21:00,
2013-03-13 07:32:00,56.0,49.0,30.14,NE,38,1.0,2.0,76,0.00,,,0.00,,2013-03-13 14:32:00,
2013-03-13 07:52:00,56.0,49.0,30.14,NE,38,0.0,2.0,78,0.00,,,0.00,,2013-03-13 14:52:00,
2013-03-13 08:02:00,56.0,49.0,30.14,NE,38,0.0,1.0,78,0.00,,,0.00,,2013-03-13 15:02:00,
2013-03-13 08:11:00,56.0,49.0,30.14,NE,38,0.0,1.0,78,0.00,,,0.00,,2013-03-13 15:11:00,
2013-03-13 08:22:00,56.0,49.0,30.14,ENE,65,1.0,2.0,78,0.00,,,0.00,,2013-03-13 15:22:00,
2013-03-13 08:32:00,56.0,49.0,30.14,ENE,65,1.0,2.0,78,0.00,,,0.00,,2013-03-13 15:32:00,
2013-03-13 08:52:00,56.0,49.0,30.15,ENE,65,0.0,1.0,78,0.00,,,0.00,,2013-03-13 15:52:00,
2013-03-13 09:02:00,57.0,51.0,30.14,ENE,65,0.0,1.0,80,0.00,,,0.00,,2013-03-13 16:02:00,
2013-03-13 09:12:00,57.0,51.0,30.14,ENE,65,0.0,1.0,80,0.00,,,0.00,,2013-03-13 16:12:00,
2013-03-13 09:22:00,59.0,51.0,30.15,ENE,65,0.0,2.0,76,0.00,,,0.00,,2013-03-13 16:22:00,
2013-03-13 09:32:00,61.0,52.0,30.16,ENE,65,0.0,2.0,71,0.00,,,0.00,,2013-03-13 16:32:00,
2013-03-13 09:52:00,61.0,52.0,30.16,South,183,1.0,2.0,71,0.00,,,0.00,,2013-03-13 16:52:00,
2013-03-13 10:02:00,61.0,51.0,30.16,South,183,1.0,2.0,69,0.00,,,0.00,,2013-03-13 17:02:00,
2013-03-13 10:11:00,61.0,51.0,30.16,South,183,1.0,2.0,69,0.00,,,0.00,,2013-03-13 17:11:00,
2013-03-13 10:22:00,62.0,51.0,30.16,South,183,1.0,2.0,67,0.00,,,0.00,,2013-03-13 17:22:00,
2013-03-13 10:32:00,63.0,52.0,30.17,SE,138,1.0,4.0,68,0.00,,,0.00,,2013-03-13 17:32:00,
2013-03-13 10:53:00,64.0,53.0,30.17,SE,134,2.0,3.0,67,0.00,,,0.00,,2013-03-13 17:53:00,
2013-03-13 11:02:00,65.0,53.0,30.17,SE,134,2.0,3.0,66,0.00,,,0.00,,2013-03-13 18:02:00,
2013-03-13 11:12:00,65.0,53.0,30.17,SE,134,2.0,3.0,66,0.00,,,0.00,,2013-03-13 18:12:00,
2013-03-13 11:21:00,66.0,55.0,30.17,South,171,0.0,3.0,67,0.00,,,0.00,,2013-03-13 18:21:00,
2013-03-13 11:32:00,66.0,54.0,30.17,SW,222,3.0,4.0,65,0.00,,,0.00,,2013-03-13 18:32:00,
2013-03-13 11:42:00,66.0,54.0,30.17,SW,222,3.0,4.0,65,0.00,,,0.00,,2013-03-13 18:42:00,
2013-03-13 11:52:00,68.0,54.0,30.16,SW,235,2.0,4.0,62,0.00,,,0.00,,2013-03-13 18:52:00,
2013-03-13 12:02:00,69.0,55.0,30.16,West,264,2.0,4.0,60,0.00,,,0.00,,2013-03-13 19:02:00,
2013-03-13 12:12:00,69.0,55.0,30.16,West,264,2.0,4.0,60,0.00,,,0.00,,2013-03-13 19:12:00,
2013-03-13 12:22:00,69.0,55.0,30.17,South,188,2.0,6.0,60,0.00,,,0.00,,2013-03-13 19:22:00,
2013-03-13 12:31:00,69.0,56.0,30.16,SW,229,2.0,5.0,64,0.00,,,0.00,,2013-03-13 19:31:00,
2013-03-13 12:42:00,69.0,56.0,30.16,SW,229,2.0,5.0,64,0.00,,,0.00,,2013-03-13 19:42:00,
2013-03-13 12:53:00,70.0,55.0,30.16,SSW,210,3.0,7.0,59,0.00,,,0.00,,2013-03-13 19:53:00,
2013-03-13 13:02:00,70.0,55.0,30.16,SSW,213,2.0,6.0,59,0.00,,,0.00,,2013-03-13 20:02:00,
2013-03-13 13:11:00,70.0,55.0,30.16,SSW,213,2.0,6.0,59,0.00,,,0.00,,2013-03-13 20:11:00,
2013-03-13 13:22:00,72.0,56.0,30.16,SSW,210,2.0,5.0,57,0.00,,,0.00,,2013-03-13 20:22:00,
2013-03-13 13:32:00,73.0,56.0,30.16,West,273,2.0,7.0,55,0.00,,,0.00,,2013-03-13 20:32:00,
2013-03-13 13:41:00,73.0,56.0,30.16,West,273,2.0,7.0,55,0.00,,,0.00,,2013-03-13 20:41:00,
2013-03-13 13:52:00,73.0,55.0,30.16,WSW,239,3.0,7.0,53,0.00,,,0.00,,2013-03-13 20:52:00,
2013-03-13 14:01:00,73.0,54.0,30.15,SW,219,2.0,6.0,52,0.00,,,0.00,,2013-03-13 21:01:00,
2013-03-13 14:11:00,73.0,54.0,30.15,SW,219,2.0,6.0,52,0.00,,,0.00,,2013-03-13 21:11:00,
2013-03-13 14:21:00,73.0,54.0,30.14,SE,134,2.0,7.0,51,0.00,,,0.00,,2013-03-13 21:21:00,
2013-03-13 14:32:00,73.0,54.0,30.14,NW,317,1.0,5.0,51,0.00,,,0.00,,2013-03-13 21:32:00,
2013-03-13 14:41:00,73.0,54.0,30.14,NW,317,1.0,5.0,51,0.00,,,0.00,,2013-03-13 21:41:00,
2013-03-13 14:52:00,74.0,55.0,30.13,South,186,2.0,6.0,52,0.00,,,0.00,,2013-03-13 21:52:00,
2013-03-13 15:01:00,75.0,53.0,30.12,South,184,2.0,3.0,46,0.00,,,0.00,,2013-03-13 22:01:00,
2013-03-13 15:12:00,75.0,53.0,30.12,South,184,2.0,3.0,46,0.00,,,0.00,,2013-03-13 22:12:00,
2013-03-13 15:22:00,75.0,48.0,30.12,SW,221,2.0,6.0,38,0.00,,,0.00,,2013-03-13 22:22:00,
2013-03-13 15:31:00,76.0,47.0,30.12,SSW,204,2.0,5.0,36,0.00,,,0.00,,2013-03-13 22:31:00,
2013-03-13 15:42:00,76.0,47.0,30.12,SSW,204,2.0,5.0,36,0.00,,,0.00,,2013-03-13 22:42:00,
2013-03-13 15:52:00,76.0,48.0,30.11,South,191,1.0,6.0,37,0.00,,,0.00,,2013-03-13 22:52:00,
2013-03-13 16:01:00,76.0,48.0,30.11,WSW,257,2.0,4.0,37,0.00,,,0.00,,2013-03-13 23:01:00,
2013-03-13 16:12:00,76.0,48.0,30.11,WSW,257,2.0,4.0,37,0.00,,,0.00,,2013-03-13 23:12:00,
2013-03-13 16:22:00,77.0,49.0,30.10,SW,224,1.0,6.0,37,0.00,,,0.00,,2013-03-13 23:22:00,
2013-03-13 16:31:00,77.0,49.0,30.10,WSW,251,2.0,5.0,38,0.00,,,0.00,,2013-03-13 23:31:00,
2013-03-13 16:42:00,77.0,49.0,30.10,WSW,251,2.0,5.0,38,0.00,,,0.00,,2013-03-13 23:42:00,
2013-03-13 16:52:00,77.0,51.0,30.10,SSW,198,1.0,4.0,41,0.00,,,0.00,,2013-03-13 23:52:00,
2013-03-13 17:02:00,78.0,52.0,30.09,South,170,1.0,4.0,41,0.00,,,0.00,,2013-03-14 00:02:00,
2013-03-13 17:12:00,78.0,52.0,30.09,South,170,1.0,4.0,41,0.00,,,0.00,,2013-03-14 00:12:00,
2013-03-13 17:22:00,78.0,51.0,30.09,SW,226,2.0,5.0,39,0.00,,,0.00,,2013-03-14 00:22:00,
2013-03-13 17:31:00,77.0,51.0,30.09,West,275,2.0,7.0,40,0.00,,,0.00,,2013-03-14 00:31:00,
2013-03-13 17:42:00,77.0,51.0,30.09,West,275,2.0,7.0,40,0.00,,,0.00,,2013-03-14 00:42:00,
2013-03-13 17:52:00,77.0,51.0,30.09,NE,56,1.0,4.0,41,0.00,,,0.00,,2013-03-14 00:52:00,
2013-03-13 18:02:00,76.0,52.0,30.09,SSW,211,2.0,5.0,44,0.00,,,0.00,,2013-03-14 01:02:00,
2013-03-13 18:12:00,76.0,52.0,30.09,SSW,211,2.0,5.0,44,0.00,,,0.00,,2013-03-14 01:12:00,
2013-03-13 18:22:00,75.0,53.0,30.09,West,265,1.0,3.0,46,0.00,,,0.00,,2013-03-14 01:22:00,
2013-03-13 18:32:00,74.0,52.0,30.09,SSW,202,2.0,5.0,46,0.00,,,0.00,,2013-03-14 01:32:00,
2013-03-13 18:42:00,74.0,52.0,30.09,SSW,202,2.0,5.0,46,0.00,,,0.00,,2013-03-14 01:42:00,
2013-03-13 18:52:00,73.0,54.0,30.09,SW,225,1.0,4.0,51,0.00,,,0.00,,2013-03-14 01:52:00,
2013-03-13 19:02:00,71.0,54.0,30.09,South,186,0.0,2.0,56,0.00,,,0.00,,2013-03-14 02:02:00,
2013-03-13 19:11:00,71.0,54.0,30.09,South,186,0.0,2.0,56,0.00,,,0.00,,2013-03-14 02:11:00,
2013-03-13 19:22:00,70.0,55.0,30.09,SW,217,0.0,1.0,60,0.00,,,0.00,,2013-03-14 02:22:00,
2013-03-13 19:31:00,68.0,55.0,30.08,SW,217,0.0,0.0,64,0.00,,,0.00,,2013-03-14 02:31:00,
2013-03-13 19:42:00,68.0,55.0,30.08,SW,217,0.0,0.0,64,0.00,,,0.00,,2013-03-14 02:42:00,
2013-03-13 19:52:00,68.0,55.0,30.08,SW,217,0.0,0.0,64,0.00,,,0.00,,2013-03-14 02:52:00,
2013-03-13 20:01:00,66.0,56.0,30.09,SSE,167,0.0,2.0,69,0.00,,,0.00,,2013-03-14 03:01:00,
2013-03-13 20:12:00,66.0,56.0,30.09,SSE,167,0.0,2.0,69,0.00,,,0.00,,2013-03-14 03:12:00,
2013-03-13 20:22:00,65.0,55.0,30.09,SE,127,1.0,3.0,71,0.00,,,0.00,,2013-03-14 03:22:00,
2013-03-13 20:32:00,64.0,54.0,30.09,ESE,105,0.0,2.0,70,0.00,,,0.00,,2013-03-14 03:32:00,
2013-03-13 20:42:00,64.0,54.0,30.09,ESE,105,0.0,2.0,70,0.00,,,0.00,,2013-03-14 03:42:00,
2013-03-13 20:52:00,64.0,54.0,30.10,ESE,105,0.0,2.0,70,0.00,,,0.00,,2013-03-14 03:52:00,
2013-03-13 21:01:00,63.0,53.0,30.10,ESE,105,0.0,1.0,70,0.00,,,0.00,,2013-03-14 04:01:00,
2013-03-13 21:11:00,63.0,53.0,30.10,ESE,105,0.0,1.0,70,0.00,,,0.00,,2013-03-14 04:11:00,
2013-03-13 21:22:00,62.0,52.0,30.11,ESE,105,0.0,0.0,69,0.00,,,0.00,,2013-03-14 04:22:00,
2013-03-13 21:32:00,62.0,52.0,30.11,ESE,105,0.0,2.0,70,0.00,,,0.00,,2013-03-14 04:32:00,
2013-03-13 21:41:00,62.0,52.0,30.11,ESE,105,0.0,2.0,70,0.00,,,0.00,,2013-03-14 04:41:00,
2013-03-13 21:52:00,61.0,52.0,30.11,ESE,105,0.0,1.0,71,0.00,,,0.00,,2013-03-14 04:52:00,
2013-03-13 22:01:00,61.0,50.0,30.11,ESE,105,1.0,1.0,68,0.00,,,0.00,,2013-03-14 05:01:00,
2013-03-13 22:12:00,61.0,50.0,30.11,ESE,105,1.0,1.0,68,0.00,,,0.00,,2013-03-14 05:12:00,
2013-03-13 22:22:00,61.0,51.0,30.11,ESE,105,0.0,1.0,69,0.00,,,0.00,,2013-03-14 05:22:00,
2013-03-13 22:32:00,60.0,50.0,30.11,ESE,105,0.0,0.0,70,0.00,,,0.00,,2013-03-14 05:32:00,
2013-03-13 22:42:00,60.0,50.0,30.11,ESE,105,0.0,0.0,70,0.00,,,0.00,,2013-03-14 05:42:00,
2013-03-13 22:52:00,60.0,51.0,30.12,ESE,105,0.0,0.0,72,0.00,,,0.00,,2013-03-14 05:52:00,
2013-03-13 23:02:00,60.0,51.0,30.12,ESE,105,0.0,2.0,73,0.00,,,0.00,,2013-03-14 06:02:00,
2013-03-13 23:12:00,60.0,51.0,30.12,ESE,105,0.0,2.0,73,0.00,,,0.00,,2013-03-14 06:12:00,
2013-03-13 23:22:00,60.0,51.0,30.12,ESE,105,0.0,1.0,71,0.00,,,0.00,,2013-03-14 06:22:00,
2013-03-13 23:32:00,60.0,51.0,30.11,ESE,105,0.0,1.0,71,0.00,,,0.00,,2013-03-14 06:32:00,
2013-03-13 23:41:00,60.0,51.0,30.11,ESE,105,0.0,1.0,71,0.00,,,0.00,,2013-03-14 06:41:00,
2013-03-13 23:52:00,60.0,50.0,30.11,ESE,105,0.0,0.0,70,0.00,,,0.00,,2013-03-14 06:52:00,